• In Germany
  • List of Countries
  • For 7 days
  • Water Temperature
  • Satellite Maps
  • Weather Map
  • Weather Widgets
  • user-avatar
    Login

    Hourly Weather Boma

    Today, 14 November, Wednesday

    Time Temperature Precipitation Wind Pressure Humidity
    00:00 +22°C° 0 mm 0 mps 698 mmHg 61%
    01:00 +21°C° 0 mm 0 mps 698 mmHg 60%
    02:00 +20°C° 0 mm 0 mps 698 mmHg 61%
    03:00 +20°C° 0 mm 0 mps 698 mmHg 61%
    04:00 +20°C° 0 mm 0 mps 697 mmHg 62%
    05:00 +20°C° 0 mm 0 mps 698 mmHg 63%
    06:00 +20°C° 0 mm 0 mps 698 mmHg 65%
    07:00 +21°C° 0 mm 0 mps 698 mmHg 62%
    08:00 +24°C° 0 mm 0 mps 699 mmHg 53%
    09:00 +27°C° 0 mm 0 mps 699 mmHg 45%
    10:00 +32°C° 0 mm 1 mps 700 mmHg 36%
    11:00 +33°C° 0 mm 1 mps 699 mmHg 32%
    12:00 +35°C° 0 mm 1 mps 699 mmHg 28%
    13:00 +36°C° 0 mm 1 mps 699 mmHg 24%
    14:00 +36°C° 0 mm 1 mps 698 mmHg 25%
    15:00 +35°C° 0 mm 1 mps 697 mmHg 27%
    16:00 +35°C° 0 mm 1 mps 697 mmHg 28%
    17:00 +30°C° 0 mm 0 mps 697 mmHg 34%
    18:00 +28°C° 0 mm 0 mps 697 mmHg 40%
    19:00 +25°C° 0 mm 0 mps 697 mmHg 45%
    20:00 +24°C° 0 mm 0 mps 698 mmHg 48%
    21:00 +23°C° 0 mm 0 mps 698 mmHg 50%
    22:00 +23°C° 0 mm 0 mps 699 mmHg 52%
    23:00 +22°C° 0 mm 0 mps 699 mmHg 55%

    Tomorrow, 15 November, Thursday

    Time Temperature Precipitation Wind Pressure Humidity
    00:00 +22°C° 0 mm 0 mps 699 mmHg 58%
    01:00 +21°C° 0 mm 0 mps 699 mmHg 61%
    02:00 +23°C° 0 mm 1 mps 698 mmHg 67%
    03:00 +23°C° 0 mm 1 mps 698 mmHg 72%
    04:00 +22°C° 0 mm 1 mps 698 mmHg 78%
    05:00 +22°C° 0 mm 1 mps 698 mmHg 80%
    06:00 +23°C° 0 mm 1 mps 699 mmHg 82%
    07:00 +23°C° 0 mm 1 mps 699 mmHg 83%
    08:00 +25°C° 0 mm 1 mps 699 mmHg 75%
    09:00 +27°C° 0 mm 1 mps 700 mmHg 66%
    10:00 +29°C° 0 mm 1 mps 700 mmHg 58%
    11:00 +31°C° 0 mm 1 mps 700 mmHg 49%
    12:00 +33°C° 0 mm 1 mps 700 mmHg 41%
    13:00 +33°C° 0 mm 0 mps 699 mmHg 33%
    14:00 +33°C° 0 mm 0 mps 699 mmHg 33%
    15:00 +32°C° 0 mm 0 mps 698 mmHg 33%
    16:00 +32°C° 0 mm 0 mps 697 mmHg 32%
    17:00 +29°C° 0 mm 0 mps 698 mmHg 43%
    18:00 +28°C° 0 mm 1 mps 698 mmHg 53%
    19:00 +26°C° 0 mm 1 mps 698 mmHg 63%
    20:00 +25°C° 0 mm 1 mps 699 mmHg 70%
    21:00 +24°C° 0 mm 1 mps 699 mmHg 77%
    22:00 +24°C° 0 mm 1 mps 700 mmHg 84%
    23:00 +23°C° 0 mm 1 mps 700 mmHg 87%

    Day after tomorrow, 16 November, Friday

    Time Temperature Precipitation Wind Pressure Humidity
    00:00 +23°C° 0 mm 1 mps 700 mmHg 90%
    01:00 +22°C° 0 mm 1 mps 700 mmHg 94%
    02:00 +22°C° 0 mm 1 mps 700 mmHg 95%
    03:00 +22°C° 0 mm 1 mps 699 mmHg 95%
    04:00 +22°C° 0 mm 1 mps 699 mmHg 96%
    05:00 +23°C° 0 mm 1 mps 700 mmHg 94%
    06:00 +23°C° 0 mm 1 mps 700 mmHg 91%
    07:00 +24°C° 0 mm 1 mps 701 mmHg 88%
    08:00 +25°C° 0 mm 1 mps 701 mmHg 83%
    09:00 +26°C° 0 mm 1 mps 702 mmHg 77%
    10:00 +27°C° 0 mm 1 mps 702 mmHg 71%
    11:00 +29°C° 0 mm 1 mps 702 mmHg 62%
    12:00 +32°C° 0 mm 1 mps 701 mmHg 52%
    13:00 +34°C° 0 mm 1 mps 701 mmHg 43%
    14:00 +31°C° 0 mm 0 mps 700 mmHg 42%
    15:00 +31°C° 0 mm 0 mps 699 mmHg 41%
    16:00 +31°C° 0 mm 0 mps 698 mmHg 41%
    17:00 +30°C° 0 mm 1 mps 699 mmHg 50%
    18:00 +28°C° 0 mm 1 mps 699 mmHg 60%
    19:00 +26°C° 0 mm 1 mps 699 mmHg 69%
    20:00 +25°C° 0 mm 1 mps 700 mmHg 74%
    21:00 +24°C° 0 mm 1 mps 700 mmHg 78%
    22:00 +22°C° 0 mm 0 mps 701 mmHg 83%
    23:00 +21°C° 0 mm 0 mps 700 mmHg 85%

    17 November, Saturday

    Time Temperature Precipitation Wind Pressure Humidity
    00:00 +23°C° 0 mm 1 mps 700 mmHg 87%
    01:00 +23°C° 0 mm 1 mps 700 mmHg 89%
    02:00 +22°C° 0 mm 1 mps 700 mmHg 91%
    03:00 +22°C° 0 mm 1 mps 700 mmHg 93%
    04:00 +22°C° 0 mm 1 mps 700 mmHg 96%
    05:00 +22°C° 0 mm 1 mps 700 mmHg 94%
    06:00 +22°C° 0 mm 1 mps 701 mmHg 93%
    07:00 +23°C° 0 mm 1 mps 701 mmHg 91%
    08:00 +25°C° 0 mm 1 mps 701 mmHg 84%
    09:00 +26°C° 0 mm 1 mps 702 mmHg 77%
    10:00 +28°C° 0 mm 1 mps 702 mmHg 70%
    11:00 +29°C° 0 mm 1 mps 701 mmHg 63%
    12:00 +31°C° 0 mm 1 mps 701 mmHg 56%
    13:00 +33°C° 0 mm 1 mps 700 mmHg 48%
    14:00 +33°C° 0 mm 1 mps 699 mmHg 47%
    15:00 +32°C° 0 mm 1 mps 699 mmHg 46%
    16:00 +32°C° 0 mm 1 mps 698 mmHg 45%
    17:00 +30°C° 0 mm 1 mps 698 mmHg 53%
    18:00 +28°C° 0 mm 1 mps 699 mmHg 61%
    19:00 +26°C° 0 mm 1 mps 699 mmHg 69%
    20:00 +25°C° 0 mm 1 mps 699 mmHg 71%
    21:00 +22°C° 0 mm 0 mps 700 mmHg 73%
    22:00 +22°C° 0 mm 0 mps 700 mmHg 74%
    23:00 +21°C° 0 mm 0 mps 700 mmHg 76%

    18 November, Sunday

    Time Temperature Precipitation Wind Pressure Humidity
    00:00 +21°C° 0 mm 0 mps 700 mmHg 77%
    01:00 +20°C° 0 mm 0 mps 700 mmHg 79%
    02:00 +20°C° 0 mm 0 mps 699 mmHg 81%
    03:00 +20°C° 0 mm 0 mps 699 mmHg 82%
    04:00 +19°C° 0 mm 0 mps 699 mmHg 84%
    05:00 +20°C° 0 mm 0 mps 700 mmHg 84%
    06:00 +20°C° 0 mm 0 mps 700 mmHg 83%
    07:00 +21°C° 0 mm 0 mps 701 mmHg 83%
    08:00 +24°C° 0 mm 0 mps 701 mmHg 72%
    09:00 +27°C° 0 mm 0 mps 702 mmHg 62%
    10:00 +30°C° 0 mm 0 mps 702 mmHg 51%
    11:00 +32°C° 0 mm 0 mps 702 mmHg 44%
    12:00 +33°C° 0 mm 0 mps 701 mmHg 38%
    13:00 +36°C° 0 mm 1 mps 700 mmHg 32%
    14:00 +36°C° 0 mm 1 mps 699 mmHg 32%
    15:00 +35°C° 0 mm 1 mps 699 mmHg 32%
    16:00 +34°C° 0 mm 1 mps 698 mmHg 32%
    17:00 +32°C° 0 mm 1 mps 698 mmHg 40%
    18:00 +29°C° 0 mm 1 mps 698 mmHg 47%
    19:00 +27°C° 0 mm 1 mps 698 mmHg 55%
    20:00 +24°C° 0 mm 0 mps 699 mmHg 61%
    21:00 +23°C° 0 mm 0 mps 699 mmHg 66%
    22:00 +22°C° 0 mm 0 mps 700 mmHg 72%
    23:00 +22°C° 0.4 mm 0 mps 700 mmHg 76%

    19 November, Monday

    Time Temperature Precipitation Wind Pressure Humidity
    00:00 +22°C° 0.4 mm 0 mps 700 mmHg 80%
    01:00 +21°C° 0.4 mm 0 mps 699 mmHg 84%
    02:00 +23°C° 0.1 mm 1 mps 699 mmHg 87%
    03:00 +23°C° 0.1 mm 1 mps 699 mmHg 89%
    04:00 +22°C° 0.1 mm 1 mps 699 mmHg 92%
    05:00 +23°C° 0.5 mm 1 mps 699 mmHg 93%
    06:00 +23°C° 0.5 mm 1 mps 700 mmHg 93%
    07:00 +23°C° 0.5 mm 1 mps 700 mmHg 94%
    08:00 +25°C° 0.5 mm 1 mps 701 mmHg 85%
    09:00 +27°C° 0.5 mm 1 mps 701 mmHg 75%
    10:00 +30°C° 0.5 mm 1 mps 701 mmHg 66%
    11:00 +31°C° 0.1 mm 1 mps 701 mmHg 56%
    12:00 +33°C° 0.1 mm 1 mps 700 mmHg 46%
    13:00 +35°C° 0.1 mm 1 mps 699 mmHg 36%
    14:00 +34°C° 0 mm 1 mps 699 mmHg 38%
    15:00 +32°C° 0 mm 0 mps 698 mmHg 41%
    16:00 +31°C° 0 mm 0 mps 697 mmHg 44%
    17:00 +29°C° 0 mm 0 mps 698 mmHg 50%
    18:00 +26°C° 0 mm 0 mps 698 mmHg 57%
    19:00 +26°C° 0 mm 1 mps 698 mmHg 64%
    20:00 +24°C° 0 mm 0 mps 699 mmHg 67%
    21:00 +23°C° 0 mm 0 mps 699 mmHg 71%
    22:00 +23°C° 0 mm 0 mps 700 mmHg 75%
    23:00 +22°C° 0.8 mm 0 mps 699 mmHg 80%
    Show more